Regional Weather Roundup
Issued by NWS Portland, ME

Current Version | Previous Version | Text Only | Print | Product List | Glossary Off
Versions: 1 2 3 4 5 6 7 8 9 10 11 12 13 14 15 16 17 18 19 20 21 22 23 24 25 26 27 28 29 30 31 32 33 34 35 36 37 38 39 40 41 42 43 44 45 46 47 48 49 50
978 ASUS41 KGYX 251705 RWRGYX WEATHER ROUNDUP FOR MAINE AND NEW HAMPSHIRE NATIONAL WEATHER SERVICE GRAY ME 100 PM EDT SAT MAR 25 2017 MEZ002-005-006-010-012-015-018-020-021-024-026-027-029-251800- MAINE CITY SKY/WX TMP DP RH WIND PRES REMARKS PORTLAND CLOUDY 40 29 64 VRB5 30.26R SANFORD LGT RAIN 37 31 78 N5 30.28R BAR HARBOR CLOUDY 39 28 64 N9G16 30.21R WISCASSET PTSUNNY 41 29 62 VRB5 30.25R ROCKLAND CLOUDY 41 27 57 VRB3 30.23R FRYEBURG CLOUDY 39 28 64 CALM 30.25R LEWISTONAUBURN PTSUNNY 40 28 62 CALM 30.24S AUGUSTA CLOUDY 39 25 57 NW9 30.23R WATERVILLE CLOUDY 40 25 55 N12 30.20R BANGOR CLOUDY 38 28 67 NW14 30.21R GREENVILLE N/A 34 22 61 NW15G21 30.16R MILLINOCKET CLOUDY 39 15 37 N13 30.20S HOULTON MOSUNNY 35 12 38 N17 30.17S PRESQUE ISLE CLOUDY 33 6 32 N16 30.23R FRENCHVILLE MOSUNNY 28 2 32 NW15 30.21R WCI 16 CARIBOU CLOUDY 33 7 33 NW15 30.21R $$ NHZ002-005-008-009-011-012-014-251800- NEW HAMPSHIRE CITY SKY/WX TMP DP RH WIND PRES REMARKS PORTSMOUTH LGT SNOW 36 33 86 NW5 30.28R FOG ROCHESTER FLURRIES 36 30 79 N3 30.26R NASHUA LGT RAIN 36 35 96 NW6 30.30R FOG MANCHESTER LGT SNOW 36 32 85 NW3 30.28R FOG CONCORD LGT SNOW 35 32 88 NW3 30.27R FOG LACONIA LGT RAIN 38 33 82 SW6 30.27R PLYMOUTH CLOUDY 37 31 78 W3 30.26R BERLIN CLOUDY 36 25 64 NW8 30.24R WHITEFIELD CLOUDY 36 26 67 N6 30.25R JAFFREY LGT SNOW 35 33 92 CALM 30.25R FOG KEENE LGT SNOW 34 32 92 N7 30.29R FOG LEBANON CLOUDY 37 31 78 N6 30.28R MT WASHINGTON PTSUNNY 18 14 86 NW24 N/A WCI 0 $$ VTZ005-007-008-251800- VERMONT CITY SKY/WX TMP DP RH WIND PRES REMARKS ST JOHNSBURY N/A 36 28 73 MISG 30.26R MONTPELIER CLOUDY 34 30 85 NE3 30.30R BURLINGTON CLOUDY 34 30 85 NW12 30.32R $$ MAZ007-012-024-CTZ003-RIZ002-NYZ038-NYZ072-251800- SOUTHERN NEW ENGLAND AND NY CITY SKY/WX TMP DP RH WIND PRES REMARKS BOSTON CLOUDY 39 35 86 NE8 30.27R WORCESTER CLOUDY 37 32 82 NE6 30.23R NANTUCKET CLOUDY 44 36 73 NE16 30.20F PROVIDENCE CLOUDY 46 36 68 NE10 30.22S HARTFORD DRIZZLE 42 37 82 N12 30.24R FOG ALBANY LGT RAIN 37 31 78 N10 30.30R NEW YORK CITY CLOUDY 55 38 52 E9 30.17S $$ ANZ081-ANZ082-ANZ150-NHZ014-MEZ023>029-251800- COASTAL MARINE OBSERVATIONS STATION/POSITION TIME TEMP WIND PRES WAVE AIR SEA DIR/SP/G HT/PER (UTC) (F) (DEG/KT/KT) (MB) (FT/S) MOUNT DESERT ROC 1700 37 1022.7F MATINICUS ROCK 1600 36 360/ 8/ 9 1022.8F ISLE OF SHOALS 1600 37 20/ 8/ 9 1024.3R JEFFREYS LEDGE 1606 41 N/A 3/ 4 CASHES LEDGE BUO 1650 38 40 1023.9R 3/ 5 GEORGES BANK BUO 1550 42 41 1022.1 8/ 9 $$ .............KEY.............. WCI - WIND CHILL TC - TEMPERATURE IN CELSIUS VSB - VISIBILITY IN MILES HX - HEAT INDEX FAIR- INDICATES FEW OR NO CLOUDS BELOW 12,000 FT, WITH NO SIGNIFICANT WEATHER AND/OR OBSTRUCTIONS TO VISIBILITY.

USA.gov is the U.S. government's official web portal to all federal, state and local government web resources and services.